TimeAKDT,TemperatureF,Dew PointF,Humidity,Sea Level PressureIn,VisibilityMPH,Wind Direction,Wind SpeedMPH,Gust SpeedMPH,PrecipitationIn,Events,Conditions,WindDirDegrees,DateUTC
12:53 AM,45.0,44.1,97,30.12,2.5,ENE,3.5,-,0.00,,Overcast,70,2012-10-09 08:53:00
1:53 AM,45.0,44.1,97,30.12,2.5,Calm,Calm,-,0.01,Rain,Light Rain,0,2012-10-09 09:53:00
2:13 AM,44.6,44.6,100,30.11,3.0,Calm,Calm,-,0.00,,Overcast,0,2012-10-09 10:13:00
2:17 AM,44.6,44.6,100,30.11,2.5,Calm,Calm,-,0.00,,Overcast,0,2012-10-09 10:17:00
2:34 AM,44.6,42.8,93,30.11,4.0,Calm,Calm,-,0.00,,Overcast,0,2012-10-09 10:34:00
2:53 AM,44.1,43.0,96,30.12,4.0,Calm,Calm,-,0.00,,Overcast,0,2012-10-09 10:53:00
3:11 AM,44.6,42.8,93,30.11,1.8,Calm,Calm,-,N/A,,Overcast,0,2012-10-09 11:11:00
3:46 AM,44.6,42.8,93,30.10,2.0,Calm,Calm,-,N/A,,Overcast,0,2012-10-09 11:46:00
3:53 AM,44.1,43.0,96,30.11,2.0,Calm,Calm,-,N/A,,Overcast,0,2012-10-09 11:53:00
4:08 AM,44.6,42.8,93,30.10,2.0,Calm,Calm,-,N/A,,Overcast,0,2012-10-09 12:08:00
4:15 AM,44.6,42.8,93,30.10,1.5,Calm,Calm,-,N/A,,Overcast,0,2012-10-09 12:15:00
4:53 AM,44.1,43.0,96,30.10,0.8,Calm,Calm,-,N/A,,Mist,0,2012-10-09 12:53:00
4:59 AM,44.6,42.8,93,30.10,0.5,Calm,Calm,-,N/A,Fog,Fog,0,2012-10-09 12:59:00
5:07 AM,44.6,42.8,93,30.10,1.0,Calm,Calm,-,N/A,,Overcast,0,2012-10-09 13:07:00
5:16 AM,44.6,42.8,93,30.09,3.0,ENE,3.5,-,N/A,,Overcast,60,2012-10-09 13:16:00
5:53 AM,43.0,42.1,97,30.09,2.5,Calm,Calm,-,N/A,,Overcast,0,2012-10-09 13:53:00
6:53 AM,42.1,41.0,96,30.09,2.5,Calm,Calm,-,N/A,,Overcast,0,2012-10-09 14:53:00
7:37 AM,42.8,41.0,93,30.08,6.0,Calm,Calm,-,N/A,,Overcast,0,2012-10-09 15:37:00
7:47 AM,42.8,41.0,93,30.08,1.8,Calm,Calm,-,N/A,,Overcast,0,2012-10-09 15:47:00
7:53 AM,42.1,41.0,96,30.08,1.2,Calm,Calm,-,N/A,,Overcast,0,2012-10-09 15:53:00
8:06 AM,42.8,41.0,93,30.08,0.5,Calm,Calm,-,N/A,Fog,Fog,0,2012-10-09 16:06:00
8:31 AM,41.0,39.2,93,30.08,0.2,ENE,3.5,-,N/A,Fog,Fog,60,2012-10-09 16:31:00
8:43 AM,39.2,39.2,100,30.08,0.2,Calm,Calm,-,N/A,Fog,Fog,0,2012-10-09 16:43:00
8:53 AM,39.9,39.0,97,30.08,0.8,Calm,Calm,-,N/A,,Scattered Clouds,0,2012-10-09 16:53:00
9:03 AM,39.2,39.2,100,30.07,1.2,Calm,Calm,-,N/A,,Scattered Clouds,0,2012-10-09 17:03:00
9:18 AM,41.0,39.2,93,30.07,3.0,Calm,Calm,-,N/A,,Scattered Clouds,0,2012-10-09 17:18:00
9:28 AM,41.0,39.2,93,30.07,1.8,Calm,Calm,-,N/A,,Scattered Clouds,0,2012-10-09 17:28:00
9:43 AM,41.0,39.2,93,30.08,0.8,Calm,Calm,-,N/A,,Overcast,0,2012-10-09 17:43:00
9:53 AM,41.0,39.9,96,30.08,0.2,Calm,Calm,-,N/A,Fog,Fog,0,2012-10-09 17:53:00
10:00 AM,41.0,39.2,93,30.08,0.5,Calm,Calm,-,N/A,Fog,Fog,0,2012-10-09 18:00:00
10:36 AM,42.8,41.0,93,30.08,0.8,Calm,Calm,-,N/A,,Overcast,0,2012-10-09 18:36:00
10:53 AM,43.0,42.1,97,30.08,1.0,Calm,Calm,-,N/A,,Overcast,0,2012-10-09 18:53:00
11:31 AM,42.8,42.8,100,30.08,3.0,Calm,Calm,-,N/A,,Overcast,0,2012-10-09 19:31:00
11:46 AM,44.6,42.8,93,30.08,2.0,Calm,Calm,-,N/A,,Overcast,0,2012-10-09 19:46:00
11:53 AM,44.1,42.1,93,30.08,8.0,Calm,Calm,-,N/A,,Overcast,0,2012-10-09 19:53:00
12:28 PM,44.6,42.8,93,30.08,1.0,Calm,Calm,-,N/A,,Overcast,0,2012-10-09 20:28:00
12:49 PM,46.4,42.8,87,30.07,5.0,Calm,Calm,-,N/A,,Overcast,0,2012-10-09 20:49:00
12:53 PM,45.0,43.0,93,30.08,7.0,Calm,Calm,-,N/A,,Overcast,0,2012-10-09 20:53:00
1:19 PM,46.4,42.8,87,30.07,10.0,Calm,Calm,-,N/A,,Overcast,0,2012-10-09 21:19:00
1:53 PM,48.0,43.0,83,30.07,10.0,Calm,Calm,-,N/A,,Mostly Cloudy,0,2012-10-09 21:53:00
2:09 PM,50.0,44.6,82,30.06,10.0,SSE,3.5,-,N/A,,Scattered Clouds,160,2012-10-09 22:09:00
2:53 PM,50.0,43.0,77,30.06,10.0,Calm,Calm,-,N/A,,Scattered Clouds,0,2012-10-09 22:53:00
3:53 PM,50.0,44.1,80,30.06,10.0,West,4.6,-,N/A,,Partly Cloudy,280,2012-10-09 23:53:00
4:53 PM,50.0,44.1,80,30.05,10.0,Calm,Calm,-,N/A,,Scattered Clouds,0,2012-10-10 00:53:00
5:53 PM,48.9,43.0,80,30.05,10.0,Calm,Calm,-,N/A,,Scattered Clouds,0,2012-10-10 01:53:00
6:53 PM,44.1,42.1,93,30.05,10.0,Calm,Calm,-,N/A,,Clear,0,2012-10-10 02:53:00
7:48 PM,41.0,39.2,93,30.04,1.8,Calm,Calm,-,N/A,,Partly Cloudy,0,2012-10-10 03:48:00
7:53 PM,42.1,39.9,92,30.05,1.5,Calm,Calm,-,N/A,,Partly Cloudy,0,2012-10-10 03:53:00
7:57 PM,41.0,39.2,93,30.04,3.0,Calm,Calm,-,N/A,,Clear,0,2012-10-10 03:57:00
8:53 PM,39.9,39.0,97,30.05,10.0,Calm,Calm,-,N/A,,Partly Cloudy,0,2012-10-10 04:53:00
9:19 PM,42.8,41.0,93,30.06,1.8,Calm,Calm,-,N/A,,Partly Cloudy,0,2012-10-10 05:19:00
9:46 PM,44.6,42.8,93,30.06,2.5,Calm,Calm,-,N/A,,Partly Cloudy,0,2012-10-10 05:46:00
9:53 PM,44.1,43.0,96,30.07,2.5,Calm,Calm,-,N/A,,Partly Cloudy,0,2012-10-10 05:53:00
9:56 PM,44.6,42.8,93,30.07,3.0,ESE,3.5,-,N/A,,Overcast,110,2012-10-10 05:56:00
10:41 PM,44.6,42.8,93,30.07,2.5,Calm,Calm,-,N/A,,Overcast,0,2012-10-10 06:41:00
10:48 PM,44.6,42.8,93,30.07,3.0,East,4.6,-,N/A,,Overcast,100,2012-10-10 06:48:00
10:53 PM,44.1,43.0,96,30.07,3.0,SE,3.5,-,N/A,,Overcast,130,2012-10-10 06:53:00
11:01 PM,44.6,42.8,93,30.07,1.8,Calm,Calm,-,N/A,,Overcast,0,2012-10-10 07:01:00
11:13 PM,44.6,42.8,93,30.07,0.5,Calm,Calm,-,N/A,Fog,Fog,0,2012-10-10 07:13:00
11:53 PM,44.1,43.0,96,30.07,0.5,Calm,Calm,-,0.01,Fog,Fog,0,2012-10-10 07:53:00